Date String (YYYY-MM-DD hh:mm:ss) UTC,Instrument flags,Ambient pressure (hPa),Sample flow (lpm),Bypass flow (lpm),Sample temperature (°C),Ambient temperature (°C),ASC tube jacket temperature (°C),LED temperature (°C),Box temperature (°C),Sample RH (%),Span deviation,Mass concentration (μg/m³),Mass concentration (μg/m³),Mass concentration (μg/m³)
DateTimeUTC,F1_M11,P_M11,Q1_M11,Q2_M11,T1_M11,T2_M11,T3_M11,T4_M11,T5_M11,U1_M11,ZSPAN_M11,X0_M11,X2_M11,X1_M11
2022-03-09 20:00:00,,0821.1,5.00,0.00,23.2,22.9,00.0,32.3,24.8,06.5,0000.0,0004.86,0002.04,0001.64
2022-03-09 20:01:00,,0821.1,4.99,0.00,23.3,23.6,00.0,32.4,25.0,06.5,0000.0,0004.80,0002.02,0001.65
2022-03-09 20:02:00,,0821.1,5.01,0.00,23.4,24.0,00.0,32.4,25.2,06.4,0000.0,0003.59,0002.01,0001.66
2022-03-09 20:03:00,,0821.1,5.01,0.00,23.5,23.7,00.0,32.4,25.1,06.6,0000.0,0003.34,0002.01,0001.67
2022-03-09 20:04:00,,0821.1,5.00,0.00,23.4,23.3,00.0,32.4,25.0,06.7,0000.0,0003.41,0002.05,0001.67
2022-03-09 20:05:00,,0821.0,5.00,0.00,23.3,22.9,00.0,32.4,24.8,06.7,0000.0,0003.35,0002.05,0001.68
2022-03-09 20:06:00,,0821.1,5.00,0.00,23.1,22.6,00.0,32.3,24.6,06.7,0000.0,0003.29,0002.04,0001.69
2022-03-09 20:07:00,,0821.1,5.00,0.00,23.1,22.3,00.0,32.3,24.5,06.6,0000.0,0003.18,0002.03,0001.69
2022-03-09 20:08:00,,0821.1,5.00,0.00,23.0,22.3,00.0,32.3,24.4,06.6,0000.0,0002.87,0001.99,0001.68
2022-03-09 20:09:00,,0821.1,5.00,0.00,23.1,22.9,00.0,32.3,24.7,06.5,0000.0,0002.80,0001.97,0001.68
2022-03-09 20:10:00,,0821.1,5.00,0.00,23.2,23.6,00.0,32.3,25.0,06.5,0000.0,0002.71,0001.93,0001.66
2022-03-09 20:11:00,,0821.1,4.99,0.00,23.3,23.7,00.0,32.3,25.1,06.5,0000.0,0002.69,0001.90,0001.65
2022-03-09 20:12:00,,0821.0,5.00,0.00,23.3,23.3,00.0,32.3,24.9,06.4,0000.0,0002.71,0001.91,0001.65
2022-03-09 20:13:00,,0821.0,5.01,0.00,23.2,22.9,00.0,32.3,24.7,06.5,0000.0,0002.74,0001.92,0001.65
2022-03-09 20:14:00,,0821.0,4.99,0.00,23.1,22.6,00.0,32.3,24.5,06.5,0000.0,0002.77,0001.92,0001.65
2022-03-09 20:15:00,,0821.1,4.99,0.00,23.0,22.3,00.0,32.2,24.4,06.5,0000.0,0002.83,0001.91,0001.65
2022-03-09 20:16:00,,0821.1,4.99,0.00,23.0,22.7,00.0,32.2,24.6,06.6,0000.0,0003.01,0001.96,0001.65
2022-03-09 20:17:00,,0821.1,5.01,0.00,23.1,23.4,00.0,32.3,24.9,06.4,0000.0,0003.14,0002.01,0001.64
2022-03-09 20:18:00,,0821.1,4.99,0.00,23.3,23.9,00.0,32.3,25.1,06.4,0000.0,0003.17,0002.03,0001.64
2022-03-09 20:19:00,,0821.1,5.01,0.00,23.3,23.7,00.0,32.3,25.1,06.4,0000.0,0003.12,0002.03,0001.64
2022-03-09 20:20:00,,0821.1,5.00,0.00,23.3,23.3,00.0,32.3,24.9,06.5,0000.0,0003.15,0002.06,0001.66
2022-03-09 20:21:00,,0821.2,5.00,0.00,23.2,22.9,00.0,32.3,24.8,06.6,0000.0,0003.16,0002.06,0001.66
2022-03-09 20:22:00,,0821.2,4.99,0.00,23.1,22.6,00.0,32.2,24.6,06.7,0000.0,0003.13,0002.06,0001.65
2022-03-09 20:23:00,,0821.3,4.99,0.00,23.0,22.3,00.0,32.2,24.5,06.7,0000.0,0003.31,0002.10,0001.65
2022-03-09 20:24:00,,0821.3,5.02,0.00,22.9,22.1,00.0,32.2,24.3,06.8,0000.0,0003.54,0002.12,0001.64
2022-03-09 20:25:00,,0821.3,5.00,0.00,22.9,22.4,00.0,32.2,24.5,06.8,0000.0,0003.70,0002.15,0001.62
2022-03-09 20:26:00,,0821.4,5.01,0.00,23.1,23.2,00.0,32.2,24.8,06.7,0000.0,0003.70,0002.16,0001.62
2022-03-09 20:27:00,,0821.4,4.99,0.00,23.2,23.7,00.0,32.2,25.0,06.7,0000.0,0003.63,0002.12,0001.60
2022-03-09 20:28:00,,0821.3,5.00,0.00,23.2,23.5,00.0,32.2,25.0,06.7,0000.0,0003.47,0002.04,0001.59
2022-03-09 20:29:00,,0821.2,4.99,0.00,23.2,23.1,00.0,32.2,24.9,06.8,0000.0,0003.36,0002.00,0001.58
2022-03-09 20:30:00,,0821.2,5.01,0.00,23.1,22.8,00.0,32.2,24.8,06.9,0000.0,0003.39,0002.00,0001.57
2022-03-09 20:31:00,,0821.2,5.01,0.00,23.1,22.5,00.0,32.2,24.6,06.9,0000.0,0003.43,0001.99,0001.54
2022-03-09 20:32:00,,0821.3,4.99,0.00,22.9,22.2,00.0,32.1,24.4,06.9,0000.0,0003.64,0001.99,0001.54
2022-03-09 20:33:00,,0821.4,5.01,0.00,22.9,22.2,00.0,32.1,24.4,07.0,0000.0,0003.83,0001.99,0001.53
2022-03-09 20:34:00,,0821.4,5.00,0.00,23.0,22.7,00.0,32.1,24.6,06.9,0000.0,0003.75,0001.99,0001.53
2022-03-09 20:35:00,,0821.4,5.00,0.00,23.1,23.5,00.0,32.2,24.9,06.9,0000.0,0003.60,0001.99,0001.53
2022-03-09 20:36:00,,0821.4,4.99,0.00,23.2,23.6,00.0,32.2,25.0,06.8,0000.0,0003.45,0001.96,0001.52
2022-03-09 20:37:00,,0821.3,5.00,0.00,23.2,23.3,00.0,32.2,24.9,06.8,0000.0,0003.37,0001.94,0001.51
2022-03-09 20:38:00,,0821.3,5.00,0.00,23.1,22.9,00.0,32.2,24.7,06.9,0000.0,0003.31,0001.93,0001.51
2022-03-09 20:39:00,,0821.3,5.02,0.00,23.0,22.6,00.0,32.1,24.6,06.8,0000.0,0003.44,0001.97,0001.50
2022-03-09 20:40:00,,0821.3,4.99,0.00,22.9,22.3,00.0,32.1,24.4,06.8,0000.0,0003.50,0001.97,0001.49
2022-03-09 20:41:00,,0821.3,5.00,0.00,22.8,22.1,00.0,32.1,24.3,06.8,0000.0,0003.43,0001.93,0001.48
2022-03-09 20:42:00,,0821.2,5.01,0.00,22.8,22.0,00.0,32.1,24.2,06.9,0000.0,0003.25,0001.86,0001.47
2022-03-09 20:43:00,,0821.1,5.00,0.00,22.9,22.6,00.0,32.1,24.4,06.9,0000.0,0003.08,0001.84,0001.45
2022-03-09 20:44:00,,0821.2,4.99,0.00,23.0,23.3,00.0,32.1,24.8,06.8,0000.0,0003.03,0001.89,0001.45
2022-03-09 20:45:00,,0821.1,5.00,0.00,23.1,23.5,00.0,32.1,24.9,06.7,0000.0,0003.02,0001.89,0001.43
2022-03-09 20:46:00,,0821.1,5.01,0.00,23.1,23.2,00.0,32.1,24.8,06.7,0000.0,0003.00,0001.86,0001.42
2022-03-09 20:47:00,,0821.0,5.00,0.00,23.0,22.8,00.0,32.1,24.6,06.7,0000.0,0003.11,0001.86,0001.42
2022-03-09 20:48:00,,0821.0,4.99,0.00,22.9,22.4,00.0,32.1,24.4,06.8,0000.0,0003.57,0001.86,0001.41
2022-03-09 20:49:00,,0820.9,4.99,0.00,22.8,22.1,00.0,32.0,24.2,06.8,0000.0,0003.53,0001.84,0001.40
2022-03-09 20:50:00,,0821.0,5.01,0.00,22.7,22.0,00.0,32.0,24.1,06.9,0000.0,0003.39,0001.81,0001.41
2022-03-09 20:51:00,,0821.0,4.99,0.00,22.8,22.6,00.0,32.0,24.4,06.8,0000.0,0003.37,0001.81,0001.41
2022-03-09 20:52:00,,0821.0,5.01,0.00,22.9,23.3,00.0,32.0,24.7,06.7,0000.0,0003.51,0001.83,0001.41
2022-03-09 20:53:00,,0820.9,4.99,0.00,23.0,23.5,00.0,32.0,24.9,06.8,0000.0,0003.57,0001.86,0001.42
2022-03-09 20:54:00,,0820.9,5.01,0.00,23.0,23.2,00.0,32.0,24.7,06.8,0000.0,0003.54,0001.86,0001.43
2022-03-09 20:55:00,,0820.8,5.00,0.00,22.9,22.8,00.0,32.0,24.6,06.9,0000.0,0003.36,0001.83,0001.46
2022-03-09 20:56:00,,0820.8,5.00,0.00,22.9,22.4,00.0,32.0,24.3,06.9,0000.0,0003.35,0001.83,0001.47
2022-03-09 20:57:00,,0820.8,5.01,0.00,22.7,22.1,00.0,32.0,24.2,07.0,0000.0,0003.48,0001.82,0001.47
2022-03-09 20:58:00,,0821.0,5.00,0.00,22.6,21.9,00.0,31.9,24.0,07.0,0000.0,0004.52,0001.83,0001.48
2022-03-09 20:59:00,,0821.0,5.00,0.00,22.6,22.1,00.0,31.9,24.1,07.1,0000.0,0004.05,0001.82,0001.49
